Location: N�rnberg
(49.4471°N, 11.0632°E)
Time: 20:22:57
(UTC+01:00)

ARIANE 6 FM1 Upper Stage - Pass Details

Date: 15 February 2026
Orbit: 523 x 607 km, 62.0° (Epoch: 11 March)

Event Time Altitude Azimuth Distance (km) Brightness Sun altitude
Rises 20:16:41 0° 309° (NW) 2,660 7.1 -26.7°
Reaches altitude 10° 20:18:59 10° 300° (WNW) 1,768 6.1 -27.1°
Enters shadow 20:22:11 33° 249° (WSW) 900 4.1 -27.6°
